Location: Flitcham
(52.8000°N, 0.5667°E)
Time: 20:10:24
(UTC+00:00)

Helios 1A - Pass Details

Date: 15 May 2026
Orbit: 540 x 559 km, 98.2° (Epoch: 8 June)

Event Time Altitude Azimuth Distance (km) Brightness Sun altitude
Rises 22:10:31 0° 19° (NNE) 2,719 7.1 -14.7°
Reaches altitude 10° 22:12:43 10° 25° (NNE) 1,819 6.0 -14.9°
Maximum altitude 22:16:31 48° 100° (E) 720 3.1 -15.1°
Enters shadow 22:18:08 29° 158° (SSE) 1,012 3.6 -15.2°
